COSMOS 2251 DEB

Satellite information

Favourite Embed

Satellite Type and Status

DEBRISIN ORBIT

Key statistics

Satellite COSMOS 2251 DEB at a glance.

Uptime

11869

Days in orbit

Revolutions

≈ 14.1

Per day

Orbit

LEO

Low Earth Orbit

Inclination

73.9

Latest

Satellite identification and parameters

Extended collection of information and parameters for COSMOS 2251 DEB.

Object identification

Identified? True

Debris? True

Object name: COSMOS 2251 DEB

International designator: 1993-036AVB

Object number (NORAD): 35961

Object ID (CCSDS): 35961

Country: COMMONWEALTH OF INDEPENDENT STATES (CIS)

Current information (Y/N): Y

RCS size: SMALL

Orbital parameters

Period: 102.463 minutes

Inclination: 73.9252 deg

SMA: 7253.323 km

Apoapsis: 1014.426 km

Periapsis: 735.95 km

RAAN: 203.1346 deg

Eccentricy: 0.01919644

Argument of periapsis: 136.4306 deg

Mean anomaly: 225.2177 deg

Mean motion: 14.05391131 rev/day

Mean motion (dot): 0.00002456 rev/day2

B* drag term: 0.0012957736 1/REarth

Two-line elements (TLE)

Creation date: Dec. 14, 2025, 3:07 a.m.

Reference frame: TEME

Reference center: EARTH

Epoch: Dec. 13, 2025, 8 a.m. UTC

TLE line 0: 0 COSMOS 2251 DEB

TLE line 1: 1 35961U 93036AVB 25347.33335650 .00002456 00000-0 12958-2 0 9998

TLE line 2: 2 35961 73.9252 203.1346 0191964 136.4306 225.2177 14.05391131626903

Live tracking on map

Real-time ground track for satellite COSMOS 2251 DEB.

In-orbit conjunctions

A list of the most updated potential collisions computed for object COSMOS 2251 DEB.

Target Orbit TCA Probability of collision Miss distance Type
OBJECT A LEO 2025-02-22 19:27:40 0.0001038137 548.0 (m) UNKNOWN
DMSP 5D-2 F13 DEB SSO 2024-11-14 16:39:57 0.0001263991 659.0 (m) DEBRIS
COSMOS 2251 DEB LEO 2024-09-24 19:49:24 0.0002632538 285.0 (m) DEBRIS

Associated space launch

Military communications satellite. Destroyed in a collision with Iridium 33.

COSMOS 2251 DEB was lifted into orbit during the mission ‘Kosmos-3M | Strela-2M 51’, on board a Kosmos-3M space rocket.

The launch took place on June 16, 1993, 4:17 a.m. from 132/1 (132L).

For more information about the launch, click the button.

Launch to space Kosmos-3M | Strela-2M 51
Kosmos-3M | Strela-2M 51

Agency: N/A

Status: Launch Successful

Launch date: June 16, 1993, 4:17 a.m. UTC

Rocket: Kosmos-3M

Launch pad: 132/1 (132L)

Location: Plesetsk Cosmodrome, Russian Federation

...

Latest news about this satellite

There are no fresh news available about this satellite. Check back as we update our databases every day.


Newsletter sign-up

Weekly statistics, charts and insights to help you stay on top of the space industry.